Temperature
9 9 10 12 13 14 15 15 15 16 17 16 17 17 19 19 18 19 20 20 19 19 19 18 17 17 16 16 15 15 15 15 14 13 13 12 13 13 12 12 12 11 11 11
8 9 12 13 13 13 13 13 14 15 16 16 16 17 18 19 19 19 19 20 20 19 19 18 17 17 17 16 16 16 15 15 15 15 15 14 13 12 12 12 12 11 11 11
8 10 12 12 12 12 12 13 14 14 14 15 15 16 17 18 18 18 18 19 19 19 19 18 17 17 17 17 17 17 17 16 16 16 14 13 12 11 11 12 12 12 11 11
8 10 10 11 11 12 11 13 13 13 13 14 14 15 17 18 18 18 18 18 19 19 18 18 18 18 18 18 18 17 17 17 16 15 14 13 13 13 14 14 13 13 12 11
8 9 9 10 11 12 12 13 13 13 12 13 14 14 17 18 18 18 19 19 19 18 18 18 18 18 18 18 18 18 17 17 16 15 15 14 14 14 13 13 13 12 12 12
8 9 9 10 11 12 12 11 11 12 11 11 13 14 16 18 18 19 20 19 19 18 18 18 18 18 18 18 18 18 17 16 16 15 15 15 15 14 13 13 13 12 12 12
8 8 9 9 9 10 10 9 9 9 10 11 14 14 15 18 19 19 20 19 18 18 18 18 18 18 18 18 18 18 17 17 16 15 15 15 15 14 13 13 13 13 12 12
7 8 9 9 9 9 10 10 10 11 12 13 14 14 17 18 18 18 18 18 18 18 17 17 18 18 18 18 18 18 18 17 16 16 15 15 15 14 13 13 13 13 13 13
6 7 9 9 9 10 9 10 11 11 12 13 14 15 17 17 17 17 17 17 17 17 17 17 17 18 18 18 18 18 18 17 17 16 15 15 14 13 13 13 12 12 12 12
5 5 7 8 9 9 10 10 10 10 11 12 14 15 16 16 17 17 17 17 17 17 16 17 17 17 17 17 18 17 17 17 17 16 15 14 14 14 13 12 12 12 12 12
4 5 6 7 7 8 9 9 9 10 11 12 13 16 17 18 18 18 18 17 17 16 16 16 17 17 17 17 17 17 17 17 16 16 15 14 13 13 13 12 12 12 11 11
5 4 5 7 8 8 8 8 9 9 9 11 13 16 17 17 18 18 18 17 17 16 16 16 16 16 16 16 17 17 17 16 16 16 15 14 13 13 12 12 12 11 11 11
4 4 5 6 6 7 7 7 8 9 10 11 12 15 16 15 15 15 16 16 15 15 15 15 15 16 16 16 16 16 16 16 16 15 14 13 13 12 12 12 11 11 11 10
4 4 4 5 6 6 6 6 7 8 9 10 12 15 15 15 15 15 15 14 14 14 14 15 15 15 16 16 16 16 16 16 15 15 14 13 13 12 12 11 11 10 10 10
3 3 4 5 6 6 6 6 7 7 9 10 12 13 15 15 15 15 14 14 13 13 13 14 14 15 15 15 16 16 16 15 15 15 14 13 13 12 11 11 10 10 10 10
3 3 4 4 6 6 6 7 8 8 9 10 11 12 15 15 14 14 14 13 13 13 13 14 14 14 15 15 15 15 15 15 15 14 14 13 12 11 11 10 10 10 10 9
2 2 3 4 5 5 6 8 9 9 10 11 11 12 13 13 13 14 13 13 13 13 13 14 14 15 15 15 15 15 15 15 14 14 13 13 12 11 11 10 10 9 9 9
2 2 2 3 4 4 8 9 9 9 10 10 11 12 12 13 13 13 13 13 13 13 13 14 14 14 15 15 15 15 14 14 14 13 13 12 12 11 10 10 9 9 9 9
3 2 2 3 4 5 7 8 8 9 9 10 10 11 11 12 12 13 13 13 13 13 13 14 14 14 15 15 15 15 14 14 13 13 13 12 12 11 10 10 9 9 9 8
3 2 2 3 3 5 8 8 9 9 9 10 10 10 11 11 11 13 12 12 12 13 13 13 14 14 14 14 14 14 14 13 13 13 13 12 11 11 10 10 9 9 8 8
2 1 2 3 4 6 7 8 8 7 8 9 9 9 10 10 10 11 11 11 12 12 12 13 13 14 14 14 14 14 14 14 13 13 12 11 11 11 10 10 9 8 8 7
2 2 2 3 3 5 7 7 7 8 8 8 8 9 9 9 9 9 10 10 11 11 12 12 13 13 14 14 14 14 14 13 13 12 11 11 10 10 9 9 8 8 7 7
3 3 3 3 5 7 6 6 7 6 7 7 7 8 8 8 8 9 9 9 10 11 11 12 12 13 13 13 13 13 13 13 12 12 11 10 10 9 9 9 8 7 7 6
3 3 3 3 4 5 5 5 5 6 6 6 7 7 7 7 8 8 8 9 9 10 11 11 12 13 13 13 13 13 13 13 12 11 11 10 9 9 8 8 8 7 7 6
2 2 3 3 4 5 5 5 5 5 5 6 6 6 7 7 7 7 8 8 8 9 10 11 11 12 12 13 12 12 12 12 12 11 10 10 9 8 8 7 7 7 6 6
2 2 2 3 4 4 5 5 5 5 5 5 5 6 6 7 7 7 7 7 8 9 10 10 11 11 12 12 12 12 12 12 11 11 10 9 9 8 7 7 6 6 6 5
Wind_Speed
11 15 23 28 29 26 22 23 24 22 18 19 25 27 25 21 19 21 22 21 21 21 21 19 19 20 20 20 21 22 23 22 19 15 15 15 14 14 13 13 17 18 18 18
12 23 29 26 24 25 25 25 25 19 15 17 22 26 24 23 23 22 23 23 22 22 20 18 18 19 21 22 23 23 24 23 22 18 17 16 15 13 13 12 15 19 19 18
22 20 21 24 25 25 27 27 25 18 12 15 16 22 25 24 24 24 23 23 23 22 22 21 20 20 21 23 24 22 25 25 24 22 16 13 11 10 11 13 14 17 20 20
18 21 20 23 26 26 26 26 23 19 16 13 16 17 23 23 24 24 25 24 24 22 21 20 20 20 22 23 22 24 24 25 25 23 19 20 17 16 18 15 15 17 19 20
14 15 19 24 27 25 22 18 20 20 18 17 17 16 18 19 23 26 26 25 24 22 21 20 19 20 20 21 20 22 23 24 25 24 24 23 20 18 15 15 17 17 17 18
19 15 15 18 20 21 15 13 14 15 14 19 25 20 18 20 25 24 24 24 24 22 21 20 18 17 17 17 18 20 22 24 24 25 25 25 24 21 18 19 17 16 14 15
13 16 15 14 14 15 16 12 10 12 14 17 20 20 19 18 20 22 22 21 20 20 20 19 18 17 17 18 19 20 22 23 24 25 25 25 25 23 22 20 19 17 14 14
9 11 13 13 17 14 22 22 14 11 15 16 16 19 18 19 18 19 19 18 18 18 18 18 18 17 17 18 19 20 22 23 24 25 25 24 24 18 17 19 17 17 15 16
6 8 9 12 14 17 16 21 18 11 10 12 13 15 16 15 17 19 19 19 19 19 18 17 16 16 16 17 18 20 21 22 22 24 24 23 22 20 19 18 17 15 14 13
5 8 9 8 8 15 16 14 10 11 11 14 14 18 15 17 20 20 20 21 20 17 17 16 15 14 14 14 15 18 19 21 21 22 21 18 21 21 19 17 17 16 16 15
4 6 6 6 10 13 13 14 11 10 9 11 13 13 13 17 18 20 20 19 17 16 15 14 12 12 13 13 14 15 17 18 18 19 20 19 19 19 18 17 17 16 15 15
4 4 7 9 9 9 11 13 13 12 9 10 11 9 4 11 12 13 15 15 14 14 13 12 11 11 12 13 13 14 15 16 17 17 18 18 17 17 17 16 16 16 15 15
3 4 4 4 4 5 7 10 13 14 11 12 14 11 3 3 5 7 9 10 10 10 10 10 10 11 11 12 12 13 14 14 15 15 16 16 17 17 17 16 15 15 15 14
6 5 8 9 7 6 10 12 13 13 12 14 18 17 9 7 5 5 6 7 7 8 9 10 10 10 10 11 11 12 12 13 14 15 16 16 16 16 16 15 15 15 14 14
3 7 10 13 14 14 16 17 17 18 19 18 19 19 15 11 8 7 5 5 6 7 9 10 10 10 10 10 10 11 11 12 13 15 15 15 15 14 14 14 14 13 13 13
3 6 9 13 12 13 17 20 21 21 22 23 20 20 15 11 8 7 6 6 7 8 8 9 9 10 10 11 11 11 12 12 13 14 14 13 14 14 14 13 13 13 13 13
5 5 6 10 10 10 13 17 20 20 22 23 22 18 10 11 12 10 8 7 8 8 7 8 9 10 11 11 12 12 12 12 13 13 13 13 14 14 14 13 14 14 13 13
11 10 6 6 7 10 8 8 15 19 20 18 18 13 13 14 13 12 9 8 8 7 7 8 9 9 9 10 11 11 12 13 13 13 13 14 14 14 14 14 14 13 12 12
17 12 7 5 8 11 9 8 13 15 16 15 16 15 13 11 11 13 12 10 10 9 8 8 8 8 10 11 12 13 13 13 13 13 14 14 15 15 15 15 14 12 12 11
13 14 9 7 8 9 8 5 8 11 14 10 12 13 12 9 13 14 11 11 11 9 7 6 6 7 10 12 13 14 14 14 14 14 14 14 14 15 15 15 13 11 11 11
6 9 14 13 10 10 8 6 4 9 8 6 10 11 10 13 15 13 11 12 11 10 7 6 7 8 11 13 14 15 15 15 13 13 13 14 14 14 15 13 12 12 11 11
7 7 11 11 12 10 4 3 6 6 8 8 9 11 13 15 16 13 12 11 11 9 7 7 7 8 9 13 15 15 14 13 13 14 14 14 14 12 12 14 12 12 12 11
9 9 6 8 10 9 7 8 10 11 12 12 11 12 13 14 16 15 14 12 11 10 8 7 8 8 9 12 14 15 14 14 15 15 15 14 13 12 13 14 14 12 11 9
9 9 10 12 14 16 16 16 15 15 15 15 14 13 13 14 15 15 13 12 10 9 8 7 9 9 10 11 13 12 14 16 17 16 15 14 14 13 12 10 10 10 10 10
13 9 13 17 18 18 18 16 16 17 17 17 16 15 14 14 15 14 13 12 10 9 8 9 10 11 11 11 12 13 15 17 17 16 15 14 13 13 12 10 8 9 8 9
16 17 17 17 17 15 19 19 19 20 20 19 18 17 15 14 14 13 12 11 10 9 9 10 11 11 11 12 12 14 16 18 18 16 15 13 12 11 11 11 8 8 7 9
Wind_Direction
207 213 217 215 216 227 231 230 232 233 224 220 230 236 236 231 229 232 232 229 227 226 224 217 210 206 202 200 198 197 195 195 192 191 193 194 198 199 200 201 201 200 200 199
219 227 228 224 223 226 229 233 236 238 231 228 238 242 240 236 233 233 234 232 229 229 224 216 210 204 202 201 199 198 198 195 194 195 196 199 198 201 202 200 203 203 203 202
224 232 231 226 224 225 228 229 231 232 228 230 244 249 241 237 235 236 236 235 233 229 227 219 211 206 203 202 201 199 199 197 197 196 194 192 192 194 198 202 203 205 204 203
234 239 233 225 224 223 230 228 230 231 227 229 222 247 239 231 229 229 230 230 231 228 228 224 215 208 205 205 202 201 200 199 197 194 194 191 194 199 202 201 202 202 204 204
232 229 228 227 225 223 231 229 228 229 233 239 229 241 247 225 228 227 226 226 227 226 224 222 217 212 207 204 201 201 200 200 197 196 197 197 202 206 203 200 201 201 202 204
248 245 233 232 230 226 224 222 229 232 234 238 228 228 247 225 226 226 225 224 224 223 222 223 219 213 209 203 200 200 200 201 198 197 199 201 204 203 199 198 198 199 199 202
247 241 232 229 227 218 205 200 201 208 217 233 222 225 241 234 226 227 225 223 221 220 219 218 216 212 208 202 199 199 199 201 199 198 201 203 206 205 204 201 199 196 197 199
238 241 217 214 218 215 208 205 211 210 218 226 217 227 235 231 228 229 231 228 223 219 216 215 213 211 208 203 199 198 200 201 199 199 202 204 205 205 207 205 201 199 200 200
247 248 228 219 219 213 210 213 224 240 238 231 221 231 239 232 229 226 226 226 223 219 216 215 213 210 207 203 200 198 198 199 199 199 200 203 203 204 205 203 202 202 201 198
255 263 245 225 220 222 219 209 208 214 216 227 228 228 226 213 218 219 221 222 222 218 217 215 213 209 206 202 198 196 197 198 198 197 199 201 201 203 203 200 200 200 198 195
261 256 249 222 212 209 205 208 212 211 227 228 231 233 223 219 216 215 215 216 215 212 211 209 206 204 201 195 191 192 194 196 195 196 197 198 200 200 200 200 199 198 197 193
257 260 253 243 237 224 211 205 204 208 215 227 236 240 193 219 221 220 218 215 214 212 209 205 199 194 192 191 189 189 190 192 193 193 193 195 196 196 197 198 197 194 193 191
269 259 273 243 203 206 222 211 214 222 225 225 226 233 201 218 227 228 225 218 213 207 203 199 193 190 187 185 185 185 186 188 187 187 188 190 191 192 194 193 191 189 189 188
284 242 242 253 266 260 245 238 225 219 221 228 230 236 236 246 247 239 232 225 216 204 194 191 191 190 186 182 180 180 181 180 179 180 183 187 188 189 189 187 185 184 184 183
261 260 260 271 271 263 252 241 231 226 223 227 234 239 242 250 253 248 234 217 207 198 194 193 191 187 181 177 176 175 174 174 174 176 180 183 182 180 179 178 177 177 177 177
256 261 271 273 272 263 258 243 234 232 231 234 242 246 249 254 261 258 238 215 212 206 201 199 193 187 185 181 176 172 171 171 172 174 176 174 173 172 173 172 170 170 170 170
240 243 258 267 278 277 255 234 226 224 227 229 235 240 244 245 243 245 236 220 221 218 211 203 200 196 190 184 177 174 170 167 169 170 169 169 169 169 170 167 167 169 169 167
236 237 245 262 264 239 248 235 230 233 233 233 241 251 243 247 250 251 242 241 240 233 225 217 208 202 192 179 172 166 163 166 167 167 168 168 168 167 167 167 169 169 167 167
223 224 231 236 246 260 267 250 229 226 235 235 241 247 251 255 252 247 242 254 252 241 236 228 214 201 184 175 167 162 164 166 168 170 170 170 168 166 167 168 168 165 163 164
215 214 222 228 237 241 254 256 247 227 244 241 240 246 252 244 239 244 259 262 262 258 246 231 202 190 181 173 165 164 167 171 175 173 170 168 167 167 168 168 163 159 159 158
205 209 219 230 241 254 279 289 205 206 243 265 247 247 247 237 243 263 267 262 259 255 244 218 195 190 184 171 168 170 172 178 173 164 161 163 166 166 164 160 156 154 151 148
229 228 220 223 236 246 286 222 207 257 297 303 280 262 255 253 259 269 265 260 255 250 237 213 198 193 182 173 172 174 177 169 159 156 157 160 161 158 157 154 151 151 149 148
232 232 242 233 245 279 279 265 277 292 291 295 292 284 271 262 260 262 263 259 252 241 228 214 199 187 183 180 179 177 169 158 155 154 155 155 154 154 156 155 152 152 153 154
248 248 251 259 262 272 276 280 283 284 289 295 295 290 281 269 267 266 263 256 251 245 227 210 195 188 185 184 184 175 160 157 155 154 153 153 152 151 151 151 153 156 161 160
255 256 254 258 270 278 274 274 281 288 290 291 292 288 281 276 272 267 261 254 247 242 227 210 201 195 188 179 175 166 160 158 155 152 151 152 151 149 148 146 149 155 161 165
247 247 252 258 265 271 278 284 285 285 286 286 287 287 284 274 271 267 260 253 243 233 220 207 202 194 184 175 170 167 164 161 155 153 154 153 151 148 145 138 119 89 114 122
Height
1441 1442 1433 1428 1430 1429 1429 1429 1429 1428 1430 1435 1433 1431 1431 1434 1437 1438 1438 1440 1443 1446 1449 1453 1456 1460 1464 1468 1471 1475 1479 1484 1489 1493 1496 1500 1503 1507 1511 1514 1518 1521 1524 1527
1437 1430 1421 1424 1427 1428 1429 1429 1427 1427 1430 1432 1429 1425 1424 1426 1428 1430 1432 1433 1436 1440 1443 1446 1449 1453 1456 1460 1464 1468 1472 1477 1481 1485 1490 1494 1498 1502 1506 1509 1513 1516 1519 1522
1425 1418 1420 1421 1422 1425 1423 1425 1425 1427 1429 1429 1429 1423 1418 1417 1421 1423 1425 1426 1429 1431 1435 1438 1441 1445 1448 1452 1456 1460 1465 1470 1474 1479 1485 1489 1494 1498 1501 1503 1506 1510 1514 1517
1419 1417 1417 1416 1415 1418 1418 1418 1422 1426 1429 1426 1426 1419 1405 1407 1411 1413 1416 1418 1420 1423 1427 1430 1433 1437 1440 1444 1449 1453 1458 1463 1467 1472 1476 1480 1484 1488 1491 1495 1500 1504 1508 1512
1411 1410 1411 1409 1408 1412 1412 1416 1419 1422 1424 1424 1420 1417 1397 1398 1401 1401 1404 1408 1411 1415 1419 1422 1425 1429 1433 1437 1441 1446 1450 1455 1460 1464 1468 1473 1477 1482 1487 1491 1494 1498 1502 1506
1407 1406 1407 1405 1405 1409 1412 1417 1419 1419 1424 1422 1409 1411 1393 1387 1387 1389 1393 1398 1402 1407 1410 1414 1418 1422 1426 1430 1434 1438 1443 1447 1452 1456 1461 1465 1470 1475 1479 1483 1487 1491 1495 1499
1402 1400 1400 1403 1404 1405 1409 1415 1418 1417 1415 1402 1394 1398 1384 1375 1378 1381 1385 1389 1394 1398 1402 1406 1409 1413 1417 1421 1426 1430 1435 1439 1444 1448 1453 1457 1462 1467 1472 1476 1480 1484 1488 1491
1400 1393 1393 1395 1397 1397 1398 1403 1401 1396 1391 1385 1387 1385 1371 1370 1373 1377 1380 1383 1387 1391 1394 1397 1401 1405 1409 1413 1417 1422 1426 1431 1436 1440 1445 1450 1455 1460 1465 1469 1473 1477 1481 1484
1400 1391 1387 1389 1391 1393 1393 1393 1392 1392 1384 1381 1377 1370 1366 1366 1368 1371 1374 1377 1379 1383 1387 1390 1393 1397 1401 1405 1409 1414 1418 1423 1428 1433 1438 1443 1448 1452 1457 1462 1467 1471 1475 1479
1403 1397 1387 1387 1389 1387 1386 1387 1392 1393 1387 1379 1370 1364 1357 1358 1361 1364 1367 1369 1372 1376 1380 1383 1387 1390 1394 1398 1402 1407 1412 1416 1421 1426 1431 1435 1441 1446 1451 1455 1460 1464 1468 1473
1403 1399 1388 1385 1382 1381 1384 1388 1386 1385 1380 1371 1365 1354 1344 1346 1349 1353 1357 1361 1365 1369 1373 1376 1380 1384 1388 1392 1396 1400 1405 1410 1415 1420 1424 1429 1434 1439 1444 1449 1453 1458 1463 1467
1401 1398 1388 1382 1378 1379 1379 1379 1381 1382 1379 1372 1362 1351 1340 1342 1345 1348 1352 1356 1360 1364 1367 1371 1375 1379 1382 1386 1390 1395 1399 1404 1408 1413 1418 1423 1428 1433 1438 1442 1447 1452 1457 1461
1400 1398 1389 1378 1380 1381 1380 1379 1379 1377 1374 1368 1363 1350 1342 1344 1347 1349 1352 1354 1357 1360 1363 1366 1370 1373 1377 1381 1385 1389 1394 1398 1403 1408 1412 1417 1422 1427 1431 1437 1442 1446 1451 1456
1398 1394 1391 1383 1378 1380 1379 1378 1377 1376 1372 1365 1356 1347 1344 1345 1346 1348 1350 1352 1354 1356 1359 1362 1365 1369 1373 1377 1381 1385 1389 1393 1398 1402 1407 1411 1416 1421 1426 1431 1436 1441 1446 1451
1396 1391 1386 1382 1379 1378 1375 1372 1372 1370 1363 1360 1350 1348 1344 1345 1345 1347 1349 1351 1352 1354 1356 1358 1361 1365 1368 1372 1376 1380 1384 1389 1393 1398 1402 1407 1412 1417 1422 1427 1432 1437 1441 1446
1395 1391 1385 1379 1373 1370 1367 1362 1360 1360 1358 1354 1350 1346 1343 1344 1346 1346 1347 1349 1350 1351 1353 1355 1358 1361 1365 1368 1372 1376 1381 1385 1389 1394 1398 1403 1408 1413 1418 1422 1427 1432 1437 1442
1393 1391 1386 1375 1370 1368 1360 1350 1348 1348 1346 1346 1345 1341 1344 1345 1344 1344 1345 1347 1348 1349 1351 1353 1355 1358 1361 1365 1369 1373 1377 1382 1386 1390 1395 1399 1404 1409 1414 1419 1424 1428 1433 1438
1388 1387 1385 1376 1373 1368 1344 1340 1341 1341 1340 1341 1340 1340 1341 1341 1342 1342 1343 1344 1345 1347 1348 1350 1352 1355 1359 1362 1366 1370 1374 1378 1382 1387 1391 1396 1400 1405 1410 1415 1420 1425 1430 1434
1379 1382 1380 1374 1365 1351 1342 1340 1339 1338 1336 1337 1338 1338 1339 1340 1339 1337 1338 1340 1342 1344 1346 1347 1349 1352 1355 1359 1362 1366 1371 1375 1379 1383 1388 1392 1397 1402 1407 1411 1417 1421 1426 1431
1370 1374 1376 1369 1362 1346 1334 1333 1333 1336 1333 1332 1333 1335 1336 1337 1336 1330 1333 1336 1338 1340 1342 1344 1345 1348 1351 1355 1359 1363 1367 1371 1375 1380 1385 1389 1394 1399 1403 1408 1413 1418 1423 1427
1368 1369 1368 1363 1355 1338 1333 1332 1332 1337 1329 1328 1329 1330 1333 1333 1330 1330 1332 1332 1333 1335 1337 1339 1341 1344 1347 1351 1355 1359 1363 1367 1372 1377 1382 1387 1391 1396 1401 1406 1411 1415 1420 1424
1361 1359 1356 1355 1351 1340 1331 1332 1332 1329 1327 1326 1325 1326 1326 1326 1326 1327 1327 1327 1328 1329 1331 1333 1336 1339 1343 1347 1351 1355 1359 1364 1369 1374 1379 1384 1389 1394 1399 1403 1408 1412 1417 1421
1354 1352 1348 1345 1338 1330 1330 1330 1329 1329 1326 1324 1323 1322 1321 1320 1321 1321 1321 1321 1323 1324 1326 1328 1331 1335 1339 1343 1348 1351 1356 1361 1365 1371 1376 1381 1386 1391 1396 1400 1405 1409 1414 1418
1348 1347 1346 1341 1332 1330 1328 1327 1326 1325 1323 1321 1320 1319 1317 1316 1315 1315 1315 1315 1317 1318 1320 1323 1326 1330 1333 1339 1344 1348 1353 1357 1362 1367 1372 1378 1383 1388 1393 1398 1402 1406 1410 1414
1343 1343 1339 1334 1329 1327 1322 1322 1321 1320 1318 1317 1315 1313 1312 1310 1309 1308 1308 1308 1310 1312 1314 1318 1321 1325 1329 1334 1339 1344 1349 1354 1359 1364 1369 1375 1380 1385 1390 1395 1400 1405 1409 1412
1336 1336 1333 1326 1324 1324 1318 1317 1317 1315 1312 1311 1309 1306 1305 1304 1302 1301 1301 1301 1303 1305 1308 1311 1315 1320 1324 1329 1334 1340 1345 1350 1355 1360 1366 1371 1377 1382 1387 1392 1397 1402 1407 1410